Location: Brede
(50.9167°N, 0.6000°E)
Time: 17:39:31
(UTC+00:00)

Altair - Visible Passes

Search period start: 04 December 2020 00:00
Search period end: 14 December 2020 00:00
Orbit: 1502 x 1682 km, 47.2° (Epoch: 03 December)

Date Brightness Start Highest point End Pass type
(mag) Time Alt. Az. Time Alt. Az. Time Alt. Az.
04 Dec 8.2 18:10:25 10° SSW 18:18:32 33° SE 18:21:15 28° ESE visible
04 Dec 8.0 20:12:52 10° WSW 20:19:17 46° SW 20:19:17 46° SW visible
04 Dec 9.6 22:17:07 10° W 22:17:19 11° W 22:17:19 11° W visible
05 Dec 8.3 17:45:32 10° SSW 17:53:29 31° SE 17:57:36 22° E visible
05 Dec 7.6 19:47:45 10° WSW 19:55:38 56° SSW 19:55:38 56° SSW visible
05 Dec 9.3 21:51:57 10° W 21:53:39 17° W 21:53:39 17° W visible
06 Dec 8.4 17:20:40 10° SSW 17:28:26 29° SE 17:33:54 17° E visible
06 Dec 7.5 19:22:38 10° SW 19:31:51 59° SSE 19:31:56 59° SSE visible
06 Dec 9.0 21:26:47 10° W 21:29:58 24° W 21:29:58 24° W visible
07 Dec 8.6 16:55:50 10° S 17:03:24 27° SE 17:10:12 12° E visible
07 Dec 7.5 18:57:32 10° SW 19:06:44 57° SSE 19:08:13 52° SE visible
07 Dec 8.6 21:01:36 10° W 21:06:14 34° WSW 21:06:14 34° WSW visible
08 Dec 8.7 16:31:02 10° S 16:38:22 25° SE 16:45:31 10° E visible
08 Dec 7.7 18:32:26 10° SW 18:41:38 55° SSE 18:44:28 42° ESE visible
08 Dec 8.1 20:36:26 10° W 20:42:29 45° WSW 20:42:29 45° WSW visible
09 Dec 7.7 18:07:21 10° SW 18:16:31 53° SSE 18:20:43 33° E visible
09 Dec 7.7 20:11:15 10° W 20:18:44 58° SW 20:18:44 58° SW visible
09 Dec 9.5 22:15:47 10° W 22:16:45 14° W 22:16:45 14° W visible
10 Dec 7.8 17:42:17 10° SW 17:51:25 51° SSE 17:56:56 25° E visible
10 Dec 7.4 19:46:06 10° WSW 19:54:57 70° SSW 19:54:57 70° SSW visible
10 Dec 9.2 21:50:37 10° W 21:52:58 20° W 21:52:58 20° W visible
11 Dec 8.0 17:17:13 10° SW 17:26:19 49° SSE 17:33:09 18° E visible
11 Dec 7.3 19:20:55 10° WSW 19:30:21 71° S 19:31:10 68° SE visible
11 Dec 8.9 21:25:26 10° W 21:29:11 27° W 21:29:11 27° W visible
12 Dec 8.1 16:52:10 10° SW 17:01:13 47° SSE 17:09:21 12° E visible
12 Dec 7.4 18:55:45 10° WSW 19:05:13 71° S 19:07:22 55° ESE visible
12 Dec 8.5 21:00:15 10° W 21:05:23 36° W 21:05:23 36° W visible
13 Dec 8.2 16:27:08 10° SW 16:36:07 45° SSE 16:44:49 10° E visible
13 Dec 7.5 18:30:35 10° WSW 18:40:04 70° S 18:43:35 42° ESE visible
13 Dec 8.1 20:35:04 10° W 20:41:36 47° WSW 20:41:36 47° WSW visible
